Regional Weather Roundup
Issued by NWS Cleveland, OH

Home | Current Version | Previous Version | Text Only | Print | Product List | Glossary Off
Versions: 1 2 3 4 5 6 7 8 9 10 11 12 13 14 15 16 17 18 19 20 21 22 23 24 25 26 27 28 29 30 31 32 33 34 35 36 37 38 39 40 41 42 43 44 45 46 47 48 49 50

000
ASUS41 KCLE 251710
RWRCLE
OHIO REGIONAL WEATHER ROUNDUP
NATIONAL WEATHER SERVICE CLEVELAND, OH
100 PM EDT MON JUL 25 2016

NOTE: "FAIR" INDICATES FEW OR NO CLOUDS BELOW 12,000 FEET WITH NO
SIGNIFICANT WEATHER AND/OR OBSTRUCTIONS TO VISIBILITY.

OHZ001>008-015>018-024>027-034-035-043-044-251800-
   NORTHWEST OHIO

CITY           SKY/WX    TMP DP  RH WIND       PRES   REMARKS
DEFIANCE       PTSUNNY   83  68  60 W6        29.99R
FINDLAY        MOSUNNY   84  67  56 SW9       29.99S
TOLEDO EXPRESS CLOUDY    81  72  74 SW8       29.97S
TOLEDO EXEC    CLOUDY    83  71  67 W7        29.97S
LIMA           CLOUDY    80  67  64 SW7       30.02S
$$

OHZ009>014-019>023-028>033-038-089-251800-
   NORTHEAST OHIO

CITY           SKY/WX    TMP DP  RH WIND       PRES   REMARKS
CLE-HOPKINS    CLOUDY    87  69  54 W6        29.97F HX  91
CLE-LAKEFRONT  MOSUNNY   84  72  67 W10       29.95S
CUY CO. ARPT   PTSUNNY   82  72  69 W16       29.97F
LORAIN-ELYRIA  CLOUDY    82  70  66 W10       29.97F
ASHTABULA      CLOUDY    81  74  79 W14       29.95F
AKRON-CANTON   CLOUDY    89  70  53 NW14      29.99S HX  94
WOOSTER        CLOUDY    84  70  62 NW12      30.00S
MANSFIELD      CLOUDY    84  68  58 W7        30.02S
YOUNGSTOWN     PTSUNNY   87  72  60 W15G22    29.96S HX  93
$$

OHZ042-051>053-060>062-070>072-077>081-251800-
  SOUTHWEST OHIO

CITY           SKY/WX    TMP DP  RH WIND       PRES   REMARKS
CINC-COVINGTON CLOUDY    90  76  63 NW13G18   30.02F HX 101
CINC-LUNKEN    PTSUNNY   89  74  60 NW9       30.00S HX  98
HAMILTON       MOSUNNY   90  74  59 NW8       30.02S HX  99
DAYTON         PTSUNNY   86  67  52 W10       30.04S
WRIGHT-PAT AFB SUNNY     87  69  55 NW7       30.01S HX  91
DAYTON GENERAL MOSUNNY   88  67  49 NW8       30.02F HX  91
WILMINGTON     CLOUDY    89  75  63 W9G18     30.02S HX  99
$$

OHZ036-037-039>041-045>050-054>059-063>069-073>076-082>088-251800-
  CENTRAL AND SOUTHEAST OHIO

CITY           SKY/WX    TMP DP  RH WIND       PRES   REMARKS
COLUMBUS       PTSUNNY   90  68  48 NW13      29.99S HX  94
OSU AIRPORT    MOSUNNY   89  70  53 W12       30.00S HX  94
BOLTON FIELD   SUNNY    N/A N/A N/A SW8       30.01S
RICKENBACK AFB SUNNY     89  71  56 W12       29.99S HX  95
NEWARK         SUNNY     92  69  47 NW9       29.99S HX  97
MARION         SUNNY     85  66  53 W9        30.02S
LANCASTER      MOSUNNY   88  74  63 W9        30.00F HX  96
ZANESVILLE     MOSUNNY   96  73  47 W10       29.98F HX 105
NEW PHILLY     MOSUNNY   93  71  48 W8        29.98S HX 100
$$



USA.gov is the U.S. government's official web portal to all federal, state and local government web resources and services.